| time (UTC) | temp F | wind direction | speed MPH | gust MPH | rain 1hr in | rain 24hr in | rain mn in | humidity % | barometer mb |
| 20260506192015 | 57 | 189 | 2.0 | 6.0 | 0.03 | 0.11 | 0.11 | 94 | 1009.1 |
| 20260506191015 | 57 | 190 | 3.0 | 7.0 | 0.05 | 0.11 | 0.11 | 94 | 1009.2 |
| 20260506190015 | 57 | 180 | 2.0 | 7.0 | 0.06 | 0.11 | 0.11 | 93 | 1009.3 |
| 20260506185015 | 57 | 180 | 3.0 | 11.0 | 0.07 | 0.10 | 0.10 | 93 | 1009.4 |
| 20260506184015 | 58 | 177 | 3.0 | 7.0 | 0.08 | 0.09 | 0.09 | 92 | 1009.5 |
| 20260506183015 | 58 | 173 | 4.0 | 9.0 | 0.08 | 0.08 | 0.08 | 91 | 1009.3 |
| 20260506182015 | 58 | 178 | 3.0 | 6.0 | 0.08 | 0.08 | 0.08 | 91 | 1009.5 |
| 20260506181115 | 59 | 166 | 4.0 | 9.0 | 0.06 | 0.06 | 0.06 | 90 | 1009.6 |
| 20260506180015 | 60 | 178 | 2.0 | 8.0 | 0.05 | 0.05 | 0.05 | 88 | 1009.9 |
| 20260506175015 | 60 | 167 | 2.0 | 7.0 | 0.03 | 0.03 | 0.03 | 86 | 1010.2 |
| 20260506174015 | 61 | 164 | 1.0 | 4.0 | 0.01 | 0.01 | 0.01 | 85 | 1010.4 |
| 20260506173015 | 62 | 154 | 2.0 | 4.0 | 0.00 | 0.00 | 0.00 | 83 | 1010.5 |
| 20260506172015 | 62 | 181 | 3.0 | 9.0 | 0.00 | 0.00 | 0.00 | 81 | 1010.6 |
| 20260506171016 | 63 | 179 | 3.0 | 7.0 | 0.00 | 0.00 | 0.00 | 79 | 1010.8 |
| 20260506170014 | 64 | 185 | 3.0 | 14.0 | 0.00 | 0.00 | 0.00 | 77 | 1010.9 |
| 20260506165015 | 65 | 194 | 3.0 | 15.0 | 0.00 | 0.00 | 0.00 | 76 | 1010.8 |
| 20260506164015 | 65 | 199 | 3.0 | 9.0 | 0.00 | 0.00 | 0.00 | 76 | 1010.7 |
| 20260506163015 | 65 | 195 | 3.0 | 9.0 | 0.00 | 0.00 | 0.00 | 75 | 1010.7 |
| 20260506162015 | 66 | 201 | 4.0 | 10.0 | 0.00 | 0.00 | 0.00 | 73 | 1010.9 |
| 20260506161017 | 66 | 190 | 4.0 | 10.0 | 0.00 | 0.00 | 0.00 | 73 | 1011.1 |
| 20260506160015 | 66 | 189 | 4.0 | 11.0 | 0.00 | 0.00 | 0.00 | 72 | 1011.2 |
| 20260506155017 | 67 | 190 | 4.0 | 9.0 | 0.00 | 0.00 | 0.00 | 71 | 1011.2 |
| 20260506154018 | 67 | 199 | 4.0 | 11.0 | 0.00 | 0.00 | 0.00 | 71 | 1011.1 |
| 20260506153117 | 68 | 193 | 3.0 | 8.0 | 0.00 | 0.00 | 0.00 | 70 | 1011.1 |
| 20260506152218 | 68 | 196 | 3.0 | 7.0 | 0.00 | 0.00 | 0.00 | 71 | 1011.2 |
| 20260506151018 | 68 | 190 | 5.0 | 15.0 | 0.00 | 0.00 | 0.00 | 71 | 1011.3 |
| 20260506150017 | 68 | 194 | 4.0 | 11.0 | 0.00 | 0.00 | 0.00 | 71 | 1011.3 |
| 20260506145016 | 68 | 188 | 3.0 | 7.0 | 0.00 | 0.00 | 0.00 | 71 | 1011.4 |
| 20260506144016 | 68 | 198 | 3.0 | 16.0 | 0.00 | 0.00 | 0.00 | 71 | 1011.4 |
| 20260506143016 | 67 | 182 | 5.0 | 12.0 | 0.00 | 0.00 | 0.00 | 72 | 1011.3 |
| 20260506142017 | 66 | 198 | 4.0 | 10.0 | 0.00 | 0.00 | 0.00 | 74 | 1011.4 |
| 20260506141016 | 65 | 196 | 3.0 | 7.0 | 0.00 | 0.00 | 0.00 | 75 | 1011.5 |
| 20260506140116 | 65 | 193 | 4.0 | 12.0 | 0.00 | 0.00 | 0.00 | 76 | 1011.3 |
| 20260506135017 | 65 | 181 | 3.0 | 9.0 | 0.00 | 0.00 | 0.00 | 76 | 1011.2 |
| 20260506134117 | 64 | 208 | 3.0 | 7.0 | 0.00 | 0.00 | 0.00 | 78 | 1011.2 |
| 20260506133016 | 64 | 192 | 4.0 | 8.0 | 0.00 | 0.00 | 0.00 | 79 | 1011.2 |
| 20260506132016 | 63 | 188 | 4.0 | 9.0 | 0.00 | 0.00 | 0.00 | 80 | 1011.1 |
| 20260506131016 | 63 | 191 | 3.0 | 6.0 | 0.00 | 0.00 | 0.00 | 81 | 1011.4 |
| 20260506130016 | 62 | 179 | 3.0 | 9.0 | 0.00 | 0.00 | 0.00 | 83 | 1011.6 |
| 20260506125016 | 61 | 192 | 3.0 | 6.0 | 0.00 | 0.00 | 0.00 | 85 | 1011.8 |
| 20260506124016 | 60 | 194 | 4.0 | 9.0 | 0.00 | 0.00 | 0.00 | 86 | 1011.8 |
| 20260506123017 | 60 | 192 | 3.0 | 8.0 | 0.00 | 0.00 | 0.00 | 88 | 1011.8 |
| 20260506122016 | 59 | 198 | 3.0 | 11.0 | 0.00 | 0.00 | 0.00 | 88 | 1011.7 |
| 20260506121016 | 59 | 188 | 3.0 | 8.0 | 0.00 | 0.00 | 0.00 | 88 | 1011.8 |
| 20260506120017 | 58 | 177 | 3.0 | 8.0 | 0.00 | 0.00 | 0.00 | 89 | 1011.8 |
| 20260506115018 | 58 | 196 | 3.0 | 6.0 | 0.00 | 0.00 | 0.00 | 89 | 1011.7 |
| 20260506114016 | 58 | 187 | 3.0 | 7.0 | 0.00 | 0.00 | 0.00 | 90 | 1011.6 |
| 20260506113016 | 58 | 188 | 4.0 | 9.0 | 0.00 | 0.00 | 0.00 | 90 | 1011.8 |
| 20260506112017 | 57 | 183 | 3.0 | 8.0 | 0.00 | 0.00 | 0.00 | 91 | 1011.9 |
| 20260506111016 | 57 | 191 | 3.0 | 6.0 | 0.00 | 0.00 | 0.00 | 91 | 1012.1 |
| 20260506110016 | 57 | 187 | 3.0 | 6.0 | 0.00 | 0.00 | 0.00 | 91 | 1011.9 |
| 20260506105016 | 56 | 199 | 3.0 | 5.0 | 0.00 | 0.00 | 0.00 | 92 | 1011.9 |
| 20260506104116 | 56 | 190 | 3.0 | 8.0 | 0.00 | 0.00 | 0.00 | 92 | 1011.9 |
| 20260506103016 | 56 | 198 | 3.0 | 4.0 | 0.00 | 0.00 | 0.00 | 91 | 1011.8 |
| 20260506102016 | 56 | 188 | 3.0 | 6.0 | 0.00 | 0.00 | 0.00 | 91 | 1011.8 |
| 20260506101016 | 56 | 187 | 2.0 | 5.0 | 0.00 | 0.00 | 0.00 | 91 | 1011.8 |
| 20260506100016 | 56 | 199 | 3.0 | 5.0 | 0.00 | 0.00 | 0.00 | 90 | 1011.8 |
| 20260506095017 | 56 | 189 | 3.0 | 7.0 | 0.00 | 0.00 | 0.00 | 90 | 1011.8 |
| 20260506094016 | 56 | 204 | 3.0 | 6.0 | 0.00 | 0.00 | 0.00 | 90 | 1011.8 |
| 20260506093016 | 56 | 173 | 3.0 | 7.0 | 0.00 | 0.00 | 0.00 | 90 | 1011.9 |
| 20260506092017 | 56 | 188 | 3.0 | 5.0 | 0.00 | 0.00 | 0.00 | 90 | 1012.0 |
| 20260506091016 | 56 | 190 | 3.0 | 6.0 | 0.00 | 0.00 | 0.00 | 89 | 1011.9 |
| 20260506090016 | 56 | 183 | 3.0 | 6.0 | 0.00 | 0.00 | 0.00 | 89 | 1011.9 |
| 20260506085016 | 56 | 185 | 3.0 | 6.0 | 0.00 | 0.00 | 0.00 | 89 | 1012.1 |
| 20260506084016 | 57 | 197 | 3.0 | 7.0 | 0.00 | 0.00 | 0.00 | 89 | 1012.1 |
| 20260506083016 | 57 | 172 | 3.0 | 8.0 | 0.00 | 0.00 | 0.00 | 88 | 1012.0 |
| 20260506082417 | 57 | 192 | 3.0 | 5.0 | 0.00 | 0.00 | 0.00 | 88 | 1012.0 |
| 20260506081016 | 57 | 174 | 3.0 | 5.0 | 0.00 | 0.00 | 0.00 | 88 | 1012.1 |
| 20260506073016 | 57 | 183 | 3.0 | 6.0 | 0.00 | 0.00 | 0.00 | 86 | 1012.3 |
| 20260506072016 | 57 | 191 | 3.0 | 9.0 | 0.00 | 0.00 | 0.00 | 86 | 1012.4 |
| 20260506071016 | 58 | 187 | 3.0 | 7.0 | 0.00 | 0.00 | 0.00 | 85 | 1012.3 |
| 20260506070117 | 58 | 194 | 3.0 | 7.0 | 0.00 | 0.00 | 0.00 | 85 | 1012.2 |
| 20260506062016 | 58 | 203 | 3.0 | 7.0 | 0.00 | 0.00 | 0.00 | 84 | 1012.2 |
| 20260506061116 | 59 | 187 | 3.0 | 9.0 | 0.00 | 0.00 | 0.00 | 83 | 1012.3 |
| 20260506051016 | 60 | 194 | 4.0 | 7.0 | 0.00 | 0.00 | 0.00 | 80 | 1012.7 |
| 20260506045017 | 61 | 193 | 4.0 | 8.0 | 0.00 | 0.00 | 0.00 | 79 | 1012.9 |
| 20260506044016 | 61 | 198 | 4.0 | 8.0 | 0.00 | 0.00 | 0.00 | 79 | 1012.8 |
| 20260506043016 | 61 | 196 | 4.0 | 10.0 | 0.00 | 0.00 | 0.00 | 79 | 1012.9 |
| 20260506042016 | 61 | 197 | 3.0 | 8.0 | 0.00 | 0.00 | 0.00 | 78 | 1012.8 |
| 20260506041015 | 61 | 196 | 4.0 | 11.0 | 0.00 | 0.00 | 0.00 | 77 | 1012.8 |
| 20260506040016 | 61 | 196 | 4.0 | 7.0 | 0.00 | 0.00 | 0.00 | 76 | 1012.9 |
| 20260506035015 | 62 | 190 | 3.0 | 8.0 | 0.00 | 0.00 | 0.00 | 75 | 1013.0 |
| 20260506034016 | 62 | 197 | 3.0 | 7.0 | 0.00 | 0.00 | 0.00 | 74 | 1013.0 |
| 20260506033015 | 62 | 191 | 3.0 | 7.0 | 0.00 | 0.00 | 0.00 | 73 | 1012.9 |
| 20260506032015 | 62 | 186 | 4.0 | 15.0 | 0.00 | 0.00 | 0.00 | 73 | 1012.9 |
| 20260506031015 | 62 | 194 | 4.0 | 9.0 | 0.00 | 0.00 | 0.00 | 73 | 1012.7 |
| 20260506030016 | 62 | 197 | 4.0 | 9.0 | 0.00 | 0.00 | 0.00 | 73 | 1012.7 |
| 20260506025016 | 62 | 184 | 4.0 | 11.0 | 0.00 | 0.00 | 0.00 | 73 | 1012.6 |
| 20260506024015 | 62 | 179 | 4.0 | 11.0 | 0.00 | 0.00 | 0.00 | 73 | 1012.6 |
| 20260506023015 | 62 | 191 | 4.0 | 8.0 | 0.00 | 0.00 | 0.00 | 73 | 1012.5 |
| 20260506022015 | 62 | 193 | 4.0 | 8.0 | 0.00 | 0.00 | 0.00 | 72 | 1012.6 |
| 20260506021015 | 62 | 194 | 4.0 | 7.0 | 0.00 | 0.00 | 0.00 | 72 | 1012.5 |
| 20260506020017 | 62 | 186 | 4.0 | 10.0 | 0.00 | 0.00 | 0.00 | 72 | 1012.4 |
| 20260506015015 | 62 | 191 | 4.0 | 8.0 | 0.00 | 0.00 | 0.00 | 71 | 1012.4 |
| 20260506014115 | 62 | 186 | 3.0 | 8.0 | 0.00 | 0.00 | 0.00 | 71 | 1012.3 |
| 20260506013015 | 62 | 200 | 4.0 | 9.0 | 0.00 | 0.00 | 0.00 | 71 | 1012.1 |
| 20260506012016 | 62 | 201 | 4.0 | 8.0 | 0.00 | 0.00 | 0.00 | 70 | 1012.0 |
| 20260506011015 | 62 | 200 | 4.0 | 9.0 | 0.00 | 0.00 | 0.00 | 69 | 1011.9 |
| 20260506010015 | 62 | 193 | 2.0 | 7.0 | 0.00 | 0.00 | 0.00 | 69 | 1011.8 |
| 20260506005016 | 62 | 188 | 3.0 | 10.0 | 0.00 | 0.00 | 0.00 | 69 | 1011.6 |
| 20260506004015 | 63 | 192 | 3.0 | 6.0 | 0.00 | 0.00 | 0.00 | 69 | 1011.4 |
| 20260506003017 | 63 | 189 | 3.0 | 9.0 | 0.00 | 0.00 | 0.00 | 68 | 1011.2 |
| 20260506002116 | 63 | 180 | 3.0 | 9.0 | 0.00 | 0.00 | 0.00 | 68 | 1011.0 |
| 20260506001116 | 64 | 190 | 3.0 | 7.0 | 0.00 | 0.00 | 0.00 | 68 | 1010.8 |
| 20260506000016 | 64 | 192 | 4.0 | 6.0 | 0.00 | 0.00 | 0.00 | 67 | 1010.5 |
| 20260505235015 | 64 | 180 | 4.0 | 12.0 | 0.00 | 0.00 | 0.00 | 66 | 1010.4 |
| 20260505234015 | 65 | 184 | 4.0 | 8.0 | 0.00 | 0.00 | 0.00 | 66 | 1010.5 |
| 20260505233016 | 66 | 177 | 3.0 | 8.0 | 0.00 | 0.00 | 0.00 | 65 | 1010.2 |
| 20260505232016 | 66 | 189 | 3.0 | 10.0 | 0.00 | 0.00 | 0.00 | 64 | 1010.1 |
| 20260505231015 | 67 | 186 | 5.0 | 10.0 | 0.00 | 0.00 | 0.00 | 63 | 1010.0 |
| 20260505230015 | 67 | 186 | 4.0 | 9.0 | 0.00 | 0.00 | 0.00 | 62 | 1009.9 |
| 20260505225015 | 67 | 183 | 4.0 | 9.0 | 0.00 | 0.00 | 0.00 | 62 | 1009.7 |
| 20260505224015 | 68 | 194 | 5.0 | 13.0 | 0.00 | 0.00 | 0.00 | 61 | 1009.6 |
| 20260505223015 | 69 | 184 | 5.0 | 11.0 | 0.00 | 0.00 | 0.00 | 59 | 1010.0 |
| 20260505222015 | 70 | 182 | 4.0 | 11.0 | 0.00 | 0.00 | 0.00 | 58 | 1010.0 |
| 20260505221015 | 70 | 178 | 4.0 | 13.0 | 0.00 | 0.00 | 0.00 | 58 | 1010.0 |
| 20260505220115 | 70 | 191 | 3.0 | 8.0 | 0.00 | 0.00 | 0.00 | 57 | 1009.8 |
| 20260505215015 | 71 | 188 | 5.0 | 12.0 | 0.00 | 0.00 | 0.00 | 57 | 1009.8 |
| 20260505214015 | 71 | 183 | 5.0 | 12.0 | 0.00 | 0.00 | 0.00 | 56 | 1009.6 |
| 20260505213115 | 72 | 189 | 5.0 | 13.0 | 0.00 | 0.00 | 0.00 | 56 | 1009.6 |
| 20260505212016 | 72 | 180 | 4.0 | 11.0 | 0.00 | 0.00 | 0.00 | 55 | 1009.7 |
| 20260505211015 | 72 | 188 | 4.0 | 10.0 | 0.00 | 0.00 | 0.00 | 56 | 1009.7 |
| 20260505210115 | 73 | 186 | 4.0 | 12.0 | 0.00 | 0.00 | 0.00 | 55 | 1009.7 |
| 20260505205015 | 73 | 176 | 4.0 | 12.0 | 0.00 | 0.00 | 0.00 | 55 | 1009.7 |
| 20260505204017 | 73 | 189 | 5.0 | 7.0 | 0.00 | 0.00 | 0.00 | 54 | 1009.7 |
| 20260505203906 | 73 | 203 | 4.0 | 7.0 | 0.00 | 0.00 | 0.00 | 54 | 1009.7 |
| 20260505202517 | 74 | 184 | 4.0 | 11.0 | 0.00 | 0.00 | 0.00 | 53 | 1009.8 |
| 20260505201515 | 75 | 181 | 4.0 | 10.0 | 0.00 | 0.00 | 0.00 | 53 | 1009.9 |
| 20260505200515 | 75 | 201 | 4.0 | 10.0 | 0.00 | 0.00 | 0.00 | 51 | 1009.8 |
| 20260505195515 | 77 | 189 | 5.0 | 12.0 | 0.00 | 0.00 | 0.00 | 50 | 1009.9 |
| 20260505194515 | 77 | 186 | 4.0 | 9.0 | 0.00 | 0.00 | 0.00 | 50 | 1009.9 |
| 20260505193617 | 78 | 198 | 5.0 | 13.0 | 0.00 | 0.00 | 0.00 | 49 | 1010.0 |